User: anonymous   Login
Location: Unspecified
(0.0000°N, 0.0000°E)
Time: 06:58:38
(UTC+00:00)
Language:

HUMSAT D - Orbit

View from above orbital plane
View from above orbital plane
View from above satellite
View from above satellite

Ground track
Ground track

The orbit data is extracted from the following two-line orbital elements,

1 39433U 13066T   17202.94037879 +.00000450 +00000-0 +50018-4 0  9994
2 39433 097.6501 265.0311 0032778 101.3203 259.1701 14.91467483198018
Epoch (UTC): 21 July 2017 22:34:08
Eccentricity: 0.0032778
inclination: 97.6501°
perigee height: 570 km
apogee height: 616 km
right ascension of ascending node: 265.0311°
argument of perigee: 101.3203°
revolutions per day: 14.91467483
mean anomaly at epoch: 259.1701°
orbit number at epoch: 19801

The dashed part of the orbit path shows where the satellite is in the earth's shadow,  

DLR